Location: Cactus School
(34.5700°N, 118.0931°W)
Time: 08:39:59
(UTC-07:00)

S-56A Canister/Altair - Pass Details

Date: 14 April 2024
Orbit: 638 x 2488 km, 38.9° (Epoch: 29 May)

Event Time Altitude Azimuth Distance (km) Brightness Sun altitude
Rises 01:42:23 0° 290° (WNW) 5,158 11.8 -44.2°
Reaches altitude 10° 01:45:34 10° 286° (WNW) 4,379 11.3 -44.0°
Enters shadow 01:46:56 15° 283° (WNW) 4,068 11.1 -43.9°
Maximum altitude 01:57:29 50° 216° (SW) 2,831 - -43.2°
Drops below altitude 10° 02:11:38 10° 147° (SSE) 5,126 - -42.0°
Sets 02:15:44 0° 142° (SE) 6,072 - -41.6°
